Location: Eaton Estates
(41.3089°N, 82.0057°W)
Time: 11:25:36
(UTC+00:00)

DOVE 4 - Pass Details

Date: 08 April 2023
Orbit: 584 x 791 km, 97.8° (Epoch: 02 June)

Event Time Altitude Azimuth Distance (km) Brightness Sun altitude
Rises 04:16:31 0° 12° (NNE) 3,031 ? -38.7°
Reaches altitude 10° 04:18:49 10° 13° (NNE) 2,080 ? -38.9°
Enters shadow 04:18:50 10° 13° (NNE) 2,073 ? -38.9°
